Find Starlink 30893

NORAD ID: 58724 Int'l Des: 2024-002 Owner: SPXS Country: US Constellation: starlink operational
LEOCIRCULAR

現在のビュー

3D地球を読み込み中...

About Starlink 30893

Starlink 30893 (NORAD 58724) is a starlink constellation satellite (v2 mini) launched Jan 3, 2024 by SPXS of US. It operates in LEO, CIRCULAR orbit with a mass of 730.00 kg.

次回通過

Passes for default location (London). Set your location on the main map for personalized predictions.

高度履歴

Loading altitude history...

軌道要素

1 58724U 24002V 26263.37981419 .00001884 00000-0 66911-4 0 9993
2 58724 53.1543 42.0537 0002545 75.8661 284.2624 15.34391549151862
Epoch: Sep 20, 2026 • Age: 15 hours

現在のステータス

高度 480.4 km
遠地点 / 近地点 N/A
速度 7.62 km/s
衛星直下点 -46.78°S, 92.06°W
打ち上げ日 Jan 3, 2024
運用期間 2.7 years
タイプ internet

技術仕様

分類 Payload
質量 730.00 kg
乾燥質量 700.00 kg
長さ 0.30 m
スパン 29.00 m
形状 ? Box + pan
製造者 SPXS
バスタイプ Starlink V2M
フェーズステータス In Orbit
所有者/国 SPXS/US

Most Searched